1326067232531,0.870696
1326067292531,0.875600
1326067352531,0.871793
1326067412531,0.871632
1326067472531,0.875135
1326067532531,0.864807
1326067592531,0.874473
1326067652531,0.873282
1326067712531,0.865645
1326067772531,0.867408
1326067832531,0.876621
1326067892531,0.872770
1326067952531,0.866863
1326068012531,0.870237
1326068072531,0.865062
1326068132531,0.871617
1326068192531,0.864961
1326068252531,0.870933
1326068312531,0.864980
1326068372531,0.862778
1326068432531,0.868660
1326068492531,0.871759
1326068552531,0.866564
1326068612531,0.863488
1326068672531,0.872155
1326068732531,0.870772
1326068792531,0.867288
1326068852531,0.861206
1326068912531,0.868348
1326068972531,0.865576
1326069032531,0.862331
1326069092531,0.874196
1326069152531,0.870640
1326069212531,0.870025
1326069272531,0.873883
1326069332531,0.872032
1326069392531,0.873633
1326069452531,0.875330
1326069512531,0.866235
1326069572531,0.868443
1326069632531,0.869517
1326069692531,0.863539
1326069752531,0.866203
1326069812531,0.862352
1326069872531,0.870214
1326069932531,0.874457
1326069992531,0.875905
1326070052531,0.872592
1326070112531,0.862235
1326070172531,0.868111
1326070232531,0.864254
1326070292531,0.869630
1326070352531,0.871176
1326070412531,0.865031
1326070472531,0.868847
1326070532531,0.868894
1326070592531,0.874452
1326070652531,0.871051
1326070712531,0.866076
1326070772531,0.870299
1326070832542,0.871420
1326070892542,0.872272
1326070952542,0.876125
1326071012542,0.881582
1326071072542,0.884106
1326071132542,0.882713
1326071192542,0.877129
1326071252542,0.874193
1326071312542,0.870043
1326071372542,0.873321
1326071432542,0.873854
1326071492542,0.871609
1326072032542,0.876199
1326072092542,0.881316
1326072152542,0.870750
1326072212542,0.879157
1326072272542,0.875213
1326072332542,0.877914
1326072392542,0.876089
1326072452542,0.871715
1326072512542,0.877885
1326072572542,0.880107
1326072632542,0.871910
1326072692542,0.871452
1326072752542,0.879523
1326072812542,0.876475
1326072872542,0.871643
1326072932542,0.875772
1326072992542,0.876590
1326073052542,0.876322
1326073112542,0.874003
1326073172542,0.878813
1326073232542,0.881124
1326073292542,0.878270
1326073352542,0.882576
1326073412542,0.877497
1326073472542,0.884656
1326073532542,0.881709
1326073592542,0.886913
1326073652542,0.884296
1326073712542,0.885102
1326073772542,0.876182
1326073832542,0.874596
1326073892542,0.878656
1326073952542,0.879997
1326074012542,0.876469
1326074072542,0.876924
1326074132542,0.874525
1326074192542,0.872516
1326074252542,0.870681
1326074312542,0.876219
1326074372542,0.872482
1326074432553,0.871567
1326074492553,0.872413
1326074552553,0.873252
1326074612553,0.871615
1326074672553,0.872605
1326074732553,0.870844
1326074792553,0.869169
1326074852553,0.871330
1326074912553,0.865992
1326074972553,0.871417
1326075032553,0.878563
1326075092553,0.876533
1326075152553,0.871771
1326075212553,0.871037
1326075272553,0.875886
1326075332553,0.870761
1326075392553,0.873209
1326075452553,0.868153
1326075512553,0.875250
1326075572553,0.874421
1326075632553,0.870574
1326075692553,0.870877
1326075752553,0.866097
1326075812553,0.870073
1326075872553,0.870541
1326075932553,0.867840
1326075992553,0.873165
1326076052553,0.868948
1326076112553,0.876222
1326076172553,0.869137
1326076232553,0.864047
1326076292553,0.858195
1326076352553,0.866918
1326076412553,0.865768
1326076472553,0.866290
1326076532553,0.860880
1326076592553,0.864800
1326076652553,0.868325
1326076712553,0.870789
1326076772553,0.869723
1326076832553,0.862047
1326076892553,0.864988
1326076952553,0.864606
1326077012553,0.859607
1326077072553,0.858929
1326077132553,0.857387
1326077192553,0.869995
1326077252553,0.872415
1326077312553,0.864640
1326077372553,0.871392
1326077432553,0.866701
1326077492553,0.866683
1326077552553,0.868439
1326077612553,0.868125
1326077672553,0.857669
1326077732553,0.866040
1326077792553,0.871250
1326077852553,0.866446
1326077912553,0.871987
1326077972553,0.869640
1326078032563,0.868231
1326078092563,0.865444
1326078152563,0.865208
1326078212563,0.864147
1326078272563,0.861896
1326078332563,0.861657
1326078392563,0.863179
1326078452563,0.859544
1326078512563,0.864071
1326078572563,0.867311
1326078632563,0.864141
1326078692563,0.870007
1326078752563,0.856589
1326078812563,0.861888
1326078872563,0.861806
1326078932563,0.856556
1326078992563,0.859033
1326079052563,0.863188
1326079112563,0.856408
1326079172563,0.863620
1326079232563,0.864511
1326079292563,0.865939
1326079352563,0.868502
1326079412563,0.860052
1326079472563,0.864269
1326079532563,0.867639
1326079592563,0.861538
1326079652563,0.865057
1326079712563,0.859414
1326079772563,0.860370
1326079832563,0.868042
1326079892563,0.868194
1326079952563,0.869316
1326080012563,0.864205
1326080072563,0.871593
1326080132563,0.870647
1326080192563,0.869630
1326080252563,0.870674
1326080312563,0.869573
1326080372563,0.866058
1326080432563,0.874296
1326080492563,0.868902
1326080552563,0.870057
1326080612563,0.874015
1326080672563,0.872535
1326080732563,0.873124
1326080792563,0.874832
1326080852563,0.870777
1326080912563,0.868481
1326080972563,0.877819
1326081032563,0.873613
1326081092563,0.872234
1326081152563,0.871578
1326081212563,0.872483
1326081272563,0.875410
1326081332563,0.868922
1326081392563,0.866520
1326081452563,0.865784
1326081512563,0.870206
1326081572563,0.872930
1326081632574,0.868061
1326081692574,0.868121
1326081752574,0.870115
1326081812574,0.867445
1326081872574,0.876603
1326081932574,0.872711
1326081992574,0.872071
1326082052574,0.872103
1326082112574,0.871000
1326082172574,0.866363
1326082232574,0.861161
1326082292574,0.867747
1326082352574,0.872064
1326082412574,0.862367
1326082472574,0.861692
1326082532574,0.869710
1326082592574,0.868918
1326082652574,0.871314
1326082712574,0.866357
1326082772574,0.861877
1326082832574,0.877959
1326082892574,0.867213
1326082952574,0.867072
1326083012574,0.860631
1326083072574,0.867142
1326083132574,0.865237
1326083192574,0.865004
1326083252574,0.862817
1326083312574,0.869968
1326083372574,0.868207
1326083432574,0.868499
1326083492574,0.869099
1326083552574,0.874834
1326083612574,0.869965
1326083672574,0.870966
1326083732574,0.875573
1326083792574,0.879541
1326083852574,0.862051
1326083912574,0.874872
1326083972574,0.868233
1326084032574,0.866031
1326084092574,0.874497
1326084152574,0.874999
1326084212574,0.868465
1326084272574,0.870013
1326084332574,0.861886
1326084392574,0.870042
1326084452574,0.868970
1326084512574,0.865736
1326084572574,0.866700
1326084632574,0.867945
1326084692574,0.861682
1326084752574,0.869112
1326084812574,0.866759
1326084872574,0.860972
1326084932574,0.867303
1326084992574,0.867799
1326085052574,0.869424
1326085112574,0.865588
1326085172574,0.862791
1326085232585,0.865443
1326085292585,0.861930
1326085352585,0.864274
1326085412585,0.863993
1326085472585,0.862905
1326085532585,0.867584
1326085592585,0.864109
1326085652585,0.863785
1326085712585,0.861332
1326085772585,0.868550
1326085832585,0.856997
1326085892585,0.857967
1326085952585,0.867061
1326086012585,0.861981
1326086072585,0.863540
1326086132585,0.865932
1326086192585,0.865493
1326086252585,0.863604
1326086312585,0.868986
1326086372585,0.855355
1326086432585,0.865367
1326086492585,0.864998
1326086552585,0.856480
1326086612585,0.862942
1326086672585,0.862204
1326086732585,0.860429
1326086792585,0.861636
1326086852585,0.867129
1326086912585,0.858199
1326086972585,0.862444
1326087032585,0.865192
1326087092585,0.862973
1326087152585,0.857377
1326087212585,0.862886
1326087272585,0.864605
1326087332585,0.861571
1326087392585,0.860677
1326087452585,0.858480
1326087512585,0.856393
1326087572585,0.870290
1326087632585,0.853784
1326087692585,0.852519
1326087752585,0.861253
1326087812585,0.857739
1326087872585,0.858991
1326087932585,0.860150
1326087992585,0.861652
1326088052585,0.858547
1326088112585,0.862771
1326088172585,0.856483
1326088232585,0.864982
1326088292585,0.860137
1326088352585,0.859553
1326088412585,0.862917
1326088472585,0.864857
1326088532585,0.855479
1326088592585,0.861316
1326088652585,0.868566
1326088712585,0.863111
1326088772585,0.857106
1326088832596,0.858067
1326088892596,0.859417
1326088952596,0.852381
1326089012596,0.857064
1326089072596,0.856567
1326089132596,0.859232
1326089192596,0.864281
1326089252596,0.862366
1326089312596,0.858509
1326089372596,0.862805
1326089432596,0.853815
1326089492596,0.864093
1326089552596,0.858288
1326089612596,0.864353
1326089672596,0.871152
1326089732596,0.867594
1326089792596,0.864020
1326089852596,0.863476
1326089912596,0.862713
1326089972596,0.864361
1326090032596,0.859449
1326090092596,0.859601
1326090152596,0.856236
1326090212596,0.861421
1326090272596,0.864635
1326090332596,0.864432
1326090392596,0.862489
1326090452596,0.859671
1326090512596,0.861495
1326090572596,0.862545
1326090632596,0.863893
1326090692596,0.863176
1326090752596,0.862636
1326090812596,0.869927
1326090872596,0.861936
1326090932596,0.863244
1326090992596,0.863120
1326091052596,0.858937
1326091112596,0.857088
1326091172596,0.867405
1326091232596,0.858123
1326091292596,0.860125
1326091352596,0.861843
1326091412596,0.860426
1326091472596,0.856464
1326091532596,0.858641
1326091592596,0.863761
1326091652596,0.860900
1326091712596,0.856709
1326091772596,0.868796
1326091832596,0.865263
1326091892596,0.865122
1326091952596,0.861217
1326092012596,0.861249
1326092072596,0.867497
1326092132596,0.871468
1326092192596,0.857519
1326092252596,0.861322
1326092312596,0.866250
1326092372596,0.860078
1326092432607,0.864608
1326092492607,0.857976
1326092552607,0.857793
1326092612607,0.862916
1326092672607,0.857266
1326092732607,0.866820
1326092792607,0.862964
1326092852607,0.858793
1326092912607,0.861294
1326092972607,0.863734
1326093032607,0.863224
1326093092607,0.858721
1326093152607,0.858454
1326093212607,0.861986
1326093272607,0.867065
1326093332607,0.857487
1326093392607,0.862003
1326093452607,0.860257
1326093512607,0.866637
1326093572607,0.859149
1326093632607,0.861431
1326093692607,0.865118
1326093752607,0.863334
1326093812607,0.860643
1326093872607,0.863657
1326093932607,0.866529
1326093992607,0.856574
1326094052607,0.860563
1326094112607,0.861997
1326094172607,0.861461
1326094232607,0.869122
1326094292607,0.867176
1326094352607,0.865385
1326094412607,0.870880
1326094472607,0.866960
1326094532607,0.865228
1326094592607,0.866258
1326094652607,0.867373
1326094712607,0.867368
1326094772607,0.869763
1326094832607,0.868788
1326094892607,0.864323
1326094952607,0.871125
1326095012607,0.869397
1326095072607,0.870992
1326095132607,0.865304
1326095192607,0.868542
1326095252607,0.872996
1326095312607,0.869047
1326095372607,0.869185
1326095432607,0.866597
1326095492607,0.870114
1326095552607,0.867141
1326095612607,0.869442
1326095672607,0.862117
1326095732607,0.867120
1326095792607,0.865332
1326095852607,0.872184
1326095912607,0.873374
1326095972607,0.868386
1326096032619,0.863651
1326096092619,0.873531
1326096152619,0.870218
1326096212619,0.864453
1326096272619,0.874837
1326096332619,0.868689
1326096392619,0.871640
1326096452619,0.875336
1326096512619,0.871723
1326096572619,0.871796
1326096632619,0.872805
1326096692619,0.868042
1326096752619,0.864338
1326096812619,0.868666
1326096872619,0.868018
1326096932619,0.876723
1326096992619,0.870562
1326097052619,0.869728
1326097112619,0.872465
1326097172619,0.870678
1326097232619,0.867906
1326097292619,0.870896
1326097352619,0.870847
1326097412619,0.870316
1326097472619,0.879512
1326097532619,0.872198
1326097592619,0.880673
1326097652619,0.876888
1326097712619,0.874140
1326097772619,0.872185
1326097832619,0.880995
1326097892619,0.872520
1326097952619,0.882323
1326098012619,0.873110
1326098072619,0.877612
1326098132619,0.887208
1326098192619,0.877196
1326098252619,0.872078
1326098312619,0.884803
1326098372619,0.881286
1326098432619,0.887803
1326098492619,0.888329
1326098552619,0.887409
1326098612619,0.888441
1326098672619,0.894355
1326098732619,0.893276
1326098792619,0.892588
1326098852619,0.890804
1326098912619,0.889267
1326098972619,0.892675
1326099032619,0.886704
1326099092619,0.885756
1326099152619,0.894659
1326099212619,0.893647
1326099272619,0.892450
1326099332619,0.890865
1326099392619,0.883258
1326099452619,0.887298
1326099512619,0.893619
1326099572619,0.891385
1326099632630,0.896380
1326099692630,0.890889
1326099752630,0.894544
1326099812630,0.890728
1326099872630,0.894726
1326099932630,0.892815
1326099992630,0.892500
1326100052630,0.891060
1326100112630,0.891818
1326100172630,0.889372
1326100232630,0.885303
1326100292630,0.889105
1326100352630,0.888860
1326100412630,0.890693
1326100472630,0.887572
1326100532630,0.892639
1326100592630,0.883084
1326100652630,0.893735
1326100712630,0.881006
1326100772630,0.883668
1326100832630,0.883753
1326100892630,0.885389
1326100952630,0.884355
1326101012630,0.890294
1326101072630,0.882986
1326101132630,0.887859
1326101192630,0.884765
1326101252630,0.881482
1326101312630,0.879489
1326101372630,0.884094
1326101432630,0.889272
1326101492630,0.884400
1326101552630,0.878591
1326101612630,0.881455
1326101672630,0.884366
1326101732630,0.872269
1326101792630,0.885526
1326101852630,0.883019
1326101912630,0.879877
1326101972630,0.883440
1326102032630,0.892293
1326102092630,0.883545
1326102152630,0.889916
1326102212630,0.880029
1326102272630,0.885650
1326102332630,0.877902
1326102392630,0.883938
1326102452630,0.887848
1326102512630,0.881236
1326102572630,0.881276
1326102632630,0.885974
1326102692630,0.887525
1326102752630,0.881155
1326102812630,0.877541
1326102872630,0.891178
1326102932630,0.893443
1326102992630,0.889205
1326103052630,0.884892
1326103112630,0.889666
1326103172630,0.889286
1326103232642,0.882997
1326103292642,0.893664
1326103352642,0.896297
1326103412642,0.882116
1326103472642,0.889200
1326103532642,0.893359
1326103592642,0.886847
1326103652642,0.888753
1326103712642,0.881008
1326103772642,0.886195
1326103832642,0.881727
1326103892642,0.887735
1326103952642,0.886735
1326104012642,0.895398
1326104072642,0.884369
1326104132642,0.894635
1326104192642,0.892122
1326104252642,0.890150
1326104312642,0.881505
1326104372642,0.885882
1326104432642,0.889601
1326104492642,0.884692
1326104552642,0.888584
1326104612642,0.886346
1326104672642,0.886548
1326104732642,0.882959
1326104792642,0.882508
1326104852642,0.882393
1326104912642,0.885278
1326104972642,0.889028
1326105032642,0.881481
1326105092642,0.887082
1326105152642,0.882836
1326105212642,0.884900
1326105272642,0.883594
1326105332642,0.882727
1326105392642,0.885933
1326105452642,0.886980
1326105512642,0.897053
1326105572642,0.889996
1326105632642,0.903502
1326105692642,0.898151
1326105752642,0.903479
1326105812642,0.909735
1326105872642,0.905529
1326105932642,0.911414
1326105992642,0.900744
1326106052642,0.902813
1326106112642,0.898105
1326106172642,0.898045
1326106232642,0.894720
1326106292642,0.894065
1326106352642,0.891531
1326106412642,0.896972
1326106472642,0.891278
1326106532642,0.895410
1326106592642,0.888630
1326106652642,0.891674
1326106712642,0.892773
1326106772642,0.890457
1326106832654,0.884591
1326106892654,0.881922
1326106952654,0.886678
1326107012654,0.892157
1326107072654,0.893026
1326107132654,0.881263
1326107192654,0.884793
1326107252654,0.881508
1326107312654,0.885282
1326107372654,0.880022
1326107432654,0.886621
1326107492654,0.884865
1326107552654,0.875633
1326107612654,0.881720
1326107672654,0.890078
1326107732654,0.890439
1326107792654,0.881014
1326107852654,0.884340
1326107912654,0.882351
1326107972654,0.873759
1326108032654,0.875293
1326108092654,0.879324
1326108152654,0.883006
1326108212654,0.891203
1326108272654,0.880272
1326108332654,0.879754
1326108392654,0.873336
1326108452654,0.870741
1326108512654,0.883406
1326108572654,0.875429
1326108632654,0.880130
1326108692654,0.872595
1326108752654,0.871827
1326108812654,0.874470
1326108872654,0.880553
1326108932654,0.879272
1326108992654,0.872750
1326109052654,0.880748
1326109112654,0.881666
1326109172654,0.866166
1326109232654,0.868275
1326109292654,0.871908
1326109352654,0.877867
1326109412654,0.878117
1326109472654,0.878537
1326109532654,0.874675
1326109592654,0.872920
1326109652654,0.869459
1326109712654,0.880613
1326109772654,0.872935
1326109832654,0.873247
1326109892654,0.884287
1326109952654,0.883131
1326110012654,0.879992
1326110072654,0.876536
1326110132654,0.874845
1326110192654,0.882776
1326110252654,0.874001
1326110312654,0.873322
1326110372654,0.872056
1326110432666,0.876240
1326110492666,0.879706
1326110552666,0.882009
1326110612666,0.876619
1326110672666,0.878196
1326110732666,0.877175
1326110792666,0.872601
1326110852666,0.881478
1326110912666,0.871996
1326110972666,0.882159
1326111032666,0.879651
1326111092666,0.884120
1326111152666,0.878592
1326111212666,0.877731
1326111272666,0.870967
1326111332666,0.880608
1326111392666,0.875308
1326111452666,0.880074
1326111512666,0.882329
1326111572666,0.880730
1326111632666,0.877443
1326111692666,0.875301
1326111752666,0.876270
1326111812666,0.868078
1326111872666,0.876904
1326111932666,0.871894
1326111992666,0.874718
1326112052666,0.877383
1326112112666,0.878258
1326112172666,0.876541
1326112232666,0.874868
1326112292666,0.873565
1326112352666,0.881066
1326112412666,0.875360
1326112472666,0.871670
1326112532666,0.879751
1326112592666,0.874812
1326112652666,0.888986
1326112712666,0.880979
1326112772666,0.871465
1326112832666,0.874737
1326112892666,0.868101
1326112952666,0.876707
1326113012666,0.884407
1326113072666,0.870695
1326113132666,0.865954
1326113192666,0.873361
1326113252666,0.870932
1326113312666,0.865568
1326113372666,0.883763
1326113432666,0.875361
1326113492666,0.882106
1326113552666,0.875469
1326113612666,0.873628
1326113672666,0.872417
1326113732666,0.876737
1326113792666,0.870787
1326113852666,0.868033
1326113912666,0.869626
1326113972666,0.859649
1326114032677,0.871675
1326114092678,0.871319
1326114152678,0.868133
1326114212678,0.873821
1326114272678,0.865551
1326114332678,0.868981
1326114392678,0.869076
1326114452677,0.869497
1326114512677,0.871908
1326114572677,0.874893
1326114632677,0.870374
1326114692677,0.874748
1326114752677,0.873164
1326114812677,0.874246
1326114872677,0.879548
1326114932677,0.862122
1326114992677,0.869689
1326115052677,0.867031
1326115112677,0.866631
1326115172677,0.869654
1326115232677,0.867484
1326115292677,0.866773
1326115352677,0.872226
1326115412677,0.868176
1326115472678,0.875324
1326115532678,0.872380
1326115592678,0.868358
1326115652678,0.865623
1326115712678,0.864315
1326115772677,0.871647
1326115832677,0.867982
1326115892677,0.869527
1326115952677,0.860912
1326116012677,0.862452
1326116072677,0.867716
1326116132677,0.869695
1326116192677,0.861097
1326116252677,0.868179
1326116312677,0.861567
1326116372677,0.866546
1326116432677,0.866688
1326116492677,0.866163
1326116552677,0.868852
1326116612677,0.865563
1326116672677,0.868665
1326116732677,0.865710
1326116792678,0.868282
1326116852678,0.864588
1326116912678,0.870585
1326116972678,0.864550
1326117032678,0.867044
1326117092678,0.860901
1326117152677,0.865387
1326117212677,0.864941
1326117272677,0.863848
1326117332677,0.867743
1326117392677,0.860420
1326117452677,0.863525
1326117512677,0.857240
1326117572677,0.864005
1326117632689,0.858524
1326117692689,0.865234
1326117752689,0.868235
1326117812689,0.858601
1326117872689,0.868070
1326117932689,0.859706
1326117992689,0.859431
1326118052689,0.866391
1326118112689,0.864646
1326118172689,0.850238
1326118232689,0.864791
1326118292689,0.856951
1326118352689,0.854267
1326118412689,0.860231
1326118472689,0.859286
1326118532689,0.862282
1326118592689,0.866664
1326118652689,0.863320
1326118712689,0.866851
1326118772689,0.864489
1326118832689,0.869482
1326118892689,0.858912
1326118952689,0.866026
1326119012689,0.860656
1326119072689,0.858606
1326119132689,0.864624
1326119192689,0.858454
1326119252689,0.857796
1326119312689,0.867658
1326119372689,0.860553
1326119432689,0.862094
1326119492689,0.865964
1326119552689,0.861979
1326119612689,0.864841
1326119672689,0.863418
1326119732689,0.867370
1326119792689,0.863278
1326119852689,0.863104
1326119912689,0.864865
1326119972689,0.869087
1326120032689,0.871645
1326120092689,0.869762
1326120152689,0.867022
1326120212689,0.874961
1326120272689,0.867691
1326120332689,0.869659
1326120392689,0.868153
1326120452689,0.867898
1326120512689,0.880475
1326120572689,0.874331
1326120632689,0.871277
1326120692689,0.871446
1326120752689,0.869506
1326120812689,0.878923
1326120872689,0.886831
1326120932689,0.895234
1326120992689,0.914382
1326121052689,0.918486
1326121112689,0.903436
1326121172689,0.900029
1326121232701,0.897204
1326121292701,0.887461
1326121352701,0.890117
1326121412701,0.884749
1326121472701,0.881817
1326121532701,0.875147
1326121592701,0.882653
1326121652701,0.891606
1326121712701,0.889316
1326121772701,0.894005
1326121832701,0.894585
1326121892701,0.899341
1326121952701,0.894512
1326122012701,0.892169
1326122072701,0.900042
1326122132701,0.893663
1326122192701,0.891573
1326122252701,0.888464
1326122312701,0.885615
1326122372701,0.883311
1326122432701,0.881787
1326122492701,0.888160
1326122552701,0.889627
1326122612701,0.884232
1326122672701,0.886405
1326122732701,0.879542
1326122792701,0.879117
1326122852701,0.884529
1326122912701,0.883736
1326122972701,0.883516
1326123032701,0.877521
1326123092701,0.885336
1326123152701,0.873605
1326123212701,0.881130
1326123272701,0.880449
1326123332701,0.883041
1326123392701,0.877671
1326123452701,0.878362
1326123512701,0.869404
1326123572701,0.876533
1326123632701,0.883840
1326123692701,0.883159
1326123752701,0.885841
1326123812701,0.878404
1326123872701,0.879701
1326123932701,0.881970
1326123992701,0.889563
1326124052701,0.886679
1326124112701,0.891745
1326124172701,0.885919
1326124232701,0.884855
1326124292701,0.879826
1326124352701,0.896558
1326124412701,0.898097
1326124472701,0.900834
1326124532701,0.903727
1326124592701,0.902608
1326124652701,0.902349
1326124712701,0.906809
1326124772701,0.903810
1326124832712,0.901186
1326124892712,0.900220
1326124952712,0.907333
1326125012712,0.905454
1326125072712,0.895540
1326125132712,0.899334
1326125192712,0.897269
1326125252712,0.905688
1326125312712,0.900060
1326125372712,0.898824
1326125432712,0.888417
1326125492712,0.893914
1326125552712,0.895284
1326125612712,0.894376
1326125672712,0.896202
1326125732712,0.897396
1326125792712,0.893978
1326125852712,0.895317
1326125912712,0.896441
1326125972712,0.893375
1326126032712,0.891886
1326126092712,0.890992
1326126152712,0.892036
1326126212712,0.890449
1326126272712,0.882057
1326126332712,0.886040
1326126392712,0.882230
1326126452712,0.888334
1326126512712,0.886080
1326126572712,0.888630
1326126632712,0.886402
1326126692712,0.882413
1326126752712,0.881445
1326126812712,0.880516
1326126872712,0.879885
1326126932712,0.883971
1326126992712,0.871088
1326127052712,0.875294
1326127112712,0.880996
1326127172712,0.883809
1326127232712,0.875566
1326127292712,0.882137
1326127352712,0.872671
1326127412712,0.877964
1326127472712,0.878670
1326127532712,0.881578
1326127592712,0.886092
1326127652712,0.880489
1326127712712,0.874232
1326127772712,0.880561
1326127832712,0.874084
1326127892712,0.881150
1326127952712,0.873477
1326128012712,0.881143
1326128072712,0.874088
1326128132712,0.889215
1326128192712,0.881631
1326128252712,0.880361
1326128312712,0.883554
1326128372712,0.886336
1326128432714,0.883522
1326128492714,0.881615
1326128552714,0.877495
1326128612714,0.887993
1326128672714,0.882064
1326128732714,0.882558
1326128792714,0.887779
1326128852714,0.887233
1326128912714,0.883723
1326128972714,0.887286
1326129032714,0.887959
1326129092714,0.894875
1326129152714,0.896433
1326129212714,0.897826
1326129272714,0.892777
1326129332714,0.903844
1326129392714,0.903821
1326129452714,0.910301
1326129512714,0.890776
1326129572714,0.904340
1326129632714,0.906062
1326129692714,0.896967
1326129752714,0.903361
1326129812714,0.897304
1326129872714,0.904540
1326129932714,0.905489
1326129992714,0.902753
1326130052714,0.896890
1326130112714,0.907701
1326130172714,0.898944
1326130232714,0.907271